星链-2116 (STARLINK-2116 )

导读 | 豆包AI

STARLINK-2116是美国SpaceX星链星座的卫星,于2021年3月4日发射。星链旨在为全球提供宽带互联网服务,该卫星采用平板设计,搭载Ku/Ka波段通信载荷,配备氪工质霍尔推进器,具备自主避撞能力,设计寿命约5-7年,退役后会主动离轨坠入大气层焚毁,作为低轨卫星,助力星链实现低延迟、高速率的全球互联网覆盖,尤其服务偏远地区网络需求。

基本信息
目录编号:
47724
目录名称:
STARLINK-2116
国际标识:
2021-017C
轨道中心:
EARTH
卫星名称:
星链-2116
卫星全名:
星链-2116 (STARLINK-2116 )
卫星状态:
已陨落 最后检测时间 2026-04-10
发射日期:
2021-03-04 UTC
国别 :
美国 (US)
星等 :
--
轨道信息
数据来源 国际轨道数据
星历时间: 2026-04-11T02:27:55+0800
轨道信息已过期44天
半长轴: 6528.741km
偏心率: 0.0007808
轨道倾角: 53.021°
近地点辐角 290.613°
升交点赤经 279.033°
平近点角 69.408°
近地点: 145.506km
远地点: 155.702km
周期: 87.499分钟
每日圈数: 16.457302
详细信息
固有亮度:
5
最大亮度:
2.5
卫星平台:
Starlink V1.0
覆盖范围:
全球
运营商:
太空探索技术公司
运营商所在国:
美国
制造商(研发单位):
太空探索技术公司
制造商所在国:
美国
使用方式:
暂无
卫星简介
星链(Starlink)计划是由太空探索技术公司(SpaceX)提出的一个巨型低轨卫星互联网星座项目,计划在2019年至2024年间在太空搭建由约1.2万颗卫星组成的“星链”网络,其中1584颗将部署在地球上空550千米处的近地轨道,并从2020年开始工作。该卫星仍在工作。